📊 Raw Sensor Data
Showing records 42801 to 42825 of 85,005 total
| ID | Distance (ft) | Battery V | Battery A | Int Temp (°F) | Int Humid (%) | Ext Temp (°F) | Solar V | RSSI | SNR | Time Stamp |
|---|---|---|---|---|---|---|---|---|---|---|
| 42217 | 15.3 | 3.93 | -5 | 68 | 47 | 68 | 0.00 | -74 | 8 | 05/31/2025 11:00 PM |
| 42216 | 15.3 | 3.93 | -5 | 68 | 47 | 68 | 0.00 | -73 | 8 | 05/31/2025 10:45 PM |
| 42215 | 15.3 | 3.93 | -5 | 69 | 48 | 69 | 0.00 | -73 | 8 | 05/31/2025 10:30 PM |
| 42214 | 15.3 | 3.93 | -5 | 70 | 48 | 70 | 0.00 | -73 | 8 | 05/31/2025 10:15 PM |
| 42213 | 15.3 | 3.99 | -5 | 71 | 49 | 70 | 0.00 | -72 | 5 | 05/31/2025 10:00 PM |
| 42212 | 15.3 | 3.94 | -5 | 73 | 49 | 72 | 0.00 | -72 | 7 | 05/31/2025 09:45 PM |
| 42211 | 15.3 | 3.94 | -5 | 74 | 50 | 74 | 0.00 | -73 | 8 | 05/31/2025 09:30 PM |
| 42210 | 15.3 | 3.99 | -5 | 75 | 52 | 74 | 0.10 | -72 | 7 | 05/31/2025 09:15 PM |
| 42209 | 15.2 | 3.94 | -5 | 77 | 53 | 77 | 0.10 | -73 | 8 | 05/31/2025 09:00 PM |
| 42208 | 15.3 | 4.00 | -5 | 79 | 56 | 76 | 0.20 | -73 | 8 | 05/31/2025 08:45 PM |
| 42207 | 15.3 | 3.93 | -9 | 83 | 57 | 79 | 2.50 | -73 | 6 | 05/31/2025 08:30 PM |
| 42206 | 15.4 | 3.94 | -5 | 89 | 56 | 83 | 4.50 | -73 | 8 | 05/31/2025 08:15 PM |
| 42205 | 15.4 | 3.95 | 0 | 94 | 55 | 84 | 4.60 | -72 | 7 | 05/31/2025 08:00 PM |
| 42204 | 15.4 | 4.02 | 5 | 98 | 54 | 91 | 4.50 | -73 | 7 | 05/31/2025 07:45 PM |
| 42203 | 15.4 | 4.03 | 9 | 102 | 53 | 96 | 4.60 | -73 | 8 | 05/31/2025 07:30 PM |
| 42202 | 15.5 | 4.03 | -8 | 104 | 52 | 99 | 4.60 | -72 | 9 | 05/31/2025 07:15 PM |
| 42201 | 15.5 | 3.99 | 13 | 104 | 53 | 99 | 4.60 | -73 | 8 | 05/31/2025 07:00 PM |
| 42200 | 15.4 | 4.07 | 16 | 105 | 53 | 99 | 4.60 | -72 | 8 | 05/31/2025 06:45 PM |
| 42199 | 15.5 | 3.99 | 5 | 107 | 52 | 100 | 5.10 | -72 | 8 | 05/31/2025 06:30 PM |
| 42198 | 15.4 | 3.99 | 0 | 109 | 51 | 101 | 5.10 | -73 | 8 | 05/31/2025 06:15 PM |
| 42197 | 15.5 | 4.00 | 5 | 111 | 49 | 101 | 5.10 | -72 | 9 | 05/31/2025 06:00 PM |
| 42196 | 15.4 | 3.99 | 5 | 111 | 49 | 105 | 5.10 | -74 | 8 | 05/31/2025 05:45 PM |
| 42195 | 15.4 | 3.99 | 0 | 110 | 49 | 103 | 5.10 | -73 | 8 | 05/31/2025 05:30 PM |
| 42194 | 15.4 | 3.99 | 5 | 111 | 48 | 100 | 5.10 | -72 | 8 | 05/31/2025 05:15 PM |
| 42193 | 15.4 | 3.98 | 5 | 112 | 47 | 104 | 5.10 | -72 | 7 | 05/31/2025 05:00 PM |